| time (UTC) | temp F | wind direction | speed MPH | gust MPH | rain 1hr in | rain 24hr in | rain mn in | humidity % | barometer mb |
| 20260506033052 | 51 | 291 | 0.0 | 3.0 | 0.00 | 0.00 | 0.00 | 84 | 1009.9 |
| 20260506032547 | 51 | 0 | 0.0 | 3.0 | 0.00 | 0.00 | 0.00 | 84 | 1010.0 |
| 20260506032045 | 51 | 0 | 0.0 | 3.0 | 0.00 | 0.00 | 0.00 | 84 | 1010.0 |
| 20260506031600 | 51 | 0 | 0.0 | 3.0 | 0.00 | 0.00 | 0.00 | 84 | 1010.0 |
| 20260506031047 | 51 | 0 | 0.0 | 3.0 | 0.00 | 0.00 | 0.00 | 84 | 1010.0 |
| 20260506030544 | 51 | 0 | 0.0 | 3.0 | 0.00 | 0.00 | 0.00 | 83 | 1010.2 |
| 20260506030054 | 51 | 300 | 0.0 | 3.0 | 0.00 | 0.00 | 0.00 | 83 | 1010.1 |
| 20260506025547 | 51 | 0 | 0.0 | 2.0 | 0.00 | 0.00 | 0.00 | 83 | 1010.1 |
| 20260506025047 | 51 | 299 | 0.0 | 2.0 | 0.00 | 0.00 | 0.00 | 83 | 1010.2 |
| 20260506024555 | 51 | 0 | 0.0 | 2.0 | 0.00 | 0.00 | 0.00 | 83 | 1010.2 |
| 20260506024049 | 51 | 0 | 0.0 | 3.0 | 0.00 | 0.00 | 0.00 | 83 | 1010.3 |
| 20260506023547 | 51 | 0 | 0.0 | 3.0 | 0.00 | 0.00 | 0.00 | 82 | 1010.3 |
| 20260506023056 | 51 | 295 | 0.0 | 2.0 | 0.00 | 0.00 | 0.00 | 82 | 1010.3 |
| 20260506022544 | 51 | 303 | 0.0 | 2.0 | 0.00 | 0.00 | 0.00 | 82 | 1010.3 |
| 20260506022045 | 51 | 0 | 0.0 | 2.0 | 0.00 | 0.00 | 0.00 | 82 | 1010.3 |
| 20260506021550 | 51 | 0 | 0.0 | 2.0 | 0.00 | 0.00 | 0.00 | 82 | 1010.3 |
| 20260506021048 | 51 | 0 | 0.0 | 2.0 | 0.00 | 0.00 | 0.00 | 82 | 1010.3 |
| 20260506020548 | 51 | 0 | 0.0 | 2.0 | 0.00 | 0.00 | 0.00 | 81 | 1010.3 |
| 20260506020122 | 51 | 0 | 0.0 | 2.0 | 0.00 | 0.00 | 0.00 | 81 | 1010.4 |
| 20260506015549 | 51 | 0 | 0.0 | 2.0 | 0.00 | 0.00 | 0.00 | 81 | 1010.3 |
| 20260506015046 | 51 | 0 | 0.0 | 2.0 | 0.00 | 0.00 | 0.00 | 81 | 1010.3 |
| 20260506014602 | 51 | 0 | 0.0 | 1.0 | 0.00 | 0.00 | 0.00 | 81 | 1010.4 |
| 20260506014045 | 51 | 0 | 0.0 | 2.0 | 0.00 | 0.00 | 0.00 | 80 | 1010.4 |
| 20260506013548 | 51 | 0 | 0.0 | 2.0 | 0.00 | 0.00 | 0.00 | 80 | 1010.3 |
| 20260506013103 | 51 | 0 | 0.0 | 3.0 | 0.00 | 0.00 | 0.00 | 80 | 1010.3 |
| 20260506012548 | 51 | 0 | 0.0 | 3.0 | 0.00 | 0.00 | 0.00 | 79 | 1010.4 |
| 20260506012045 | 51 | 0 | 0.0 | 3.0 | 0.00 | 0.00 | 0.00 | 79 | 1010.4 |
| 20260506011558 | 51 | 0 | 0.0 | 3.0 | 0.00 | 0.00 | 0.00 | 79 | 1010.5 |
| 20260506011045 | 51 | 283 | 0.0 | 3.0 | 0.00 | 0.00 | 0.00 | 79 | 1010.6 |
| 20260506010545 | 51 | 0 | 0.0 | 3.0 | 0.00 | 0.00 | 0.00 | 78 | 1010.6 |
| 20260506010053 | 51 | 0 | 0.0 | 4.0 | 0.00 | 0.00 | 0.00 | 78 | 1010.6 |
| 20260506005544 | 51 | 296 | 0.0 | 6.0 | 0.00 | 0.00 | 0.00 | 78 | 1010.6 |
| 20260506005045 | 51 | 0 | 1.0 | 6.0 | 0.00 | 0.00 | 0.00 | 78 | 1010.7 |
| 20260506004550 | 51 | 300 | 1.0 | 6.0 | 0.00 | 0.00 | 0.00 | 78 | 1010.6 |
| 20260506004045 | 51 | 318 | 0.0 | 3.0 | 0.00 | 0.00 | 0.00 | 79 | 1010.8 |
| 20260506003546 | 51 | 0 | 0.0 | 4.0 | 0.00 | 0.00 | 0.00 | 79 | 1010.8 |
| 20260506003056 | 51 | 309 | 0.0 | 4.0 | 0.00 | 0.00 | 0.00 | 79 | 1010.9 |
| 20260506002545 | 51 | 0 | 0.0 | 6.0 | 0.00 | 0.00 | 0.00 | 79 | 1011.0 |
| 20260506002045 | 51 | 294 | 0.0 | 6.0 | 0.00 | 0.00 | 0.00 | 79 | 1011.0 |
| 20260506001602 | 51 | 0 | 1.0 | 6.0 | 0.00 | 0.00 | 0.00 | 79 | 1010.9 |
| 20260506001048 | 51 | 314 | 0.0 | 3.0 | 0.00 | 0.00 | 0.00 | 79 | 1010.9 |
| 20260506000545 | 51 | 0 | 0.0 | 3.0 | 0.00 | 0.00 | 0.00 | 80 | 1010.9 |
| 20260506000119 | 51 | 0 | 0.0 | 3.0 | 0.00 | 0.00 | 0.00 | 80 | 1010.9 |
| 20260505235545 | 51 | 0 | 0.0 | 3.0 | 0.00 | 0.00 | 0.00 | 80 | 1011.0 |
| 20260505235045 | 51 | 0 | 0.0 | 3.0 | 0.00 | 0.00 | 0.00 | 80 | 1011.0 |
| 20260505234549 | 51 | 305 | 0.0 | 3.0 | 0.00 | 0.00 | 0.00 | 80 | 1011.0 |
| 20260505234044 | 51 | 312 | 0.0 | 2.0 | 0.00 | 0.00 | 0.00 | 80 | 1011.2 |
| 20260505233547 | 51 | 0 | 0.0 | 2.0 | 0.00 | 0.00 | 0.00 | 80 | 1011.3 |
| 20260505233053 | 51 | 302 | 0.0 | 2.0 | 0.00 | 0.00 | 0.00 | 81 | 1011.3 |
| 20260505232545 | 51 | 313 | 0.0 | 3.0 | 0.00 | 0.00 | 0.00 | 81 | 1011.3 |
| 20260505232045 | 51 | 290 | 0.0 | 3.0 | 0.00 | 0.00 | 0.00 | 81 | 1011.3 |
| 20260505231554 | 51 | 0 | 0.0 | 4.0 | 0.00 | 0.00 | 0.00 | 81 | 1011.3 |
| 20260505231045 | 51 | 0 | 0.0 | 4.0 | 0.00 | 0.00 | 0.00 | 81 | 1011.4 |
| 20260505230545 | 50 | 306 | 0.0 | 4.0 | 0.00 | 0.00 | 0.00 | 81 | 1011.3 |
| 20260505230055 | 50 | 0 | 0.0 | 4.0 | 0.00 | 0.00 | 0.00 | 81 | 1011.3 |
| 20260505225545 | 50 | 0 | 0.0 | 2.0 | 0.00 | 0.00 | 0.00 | 82 | 1011.4 |
| 20260505225046 | 50 | 0 | 0.0 | 2.0 | 0.00 | 0.00 | 0.00 | 82 | 1011.4 |
| 20260505224558 | 50 | 0 | 0.0 | 2.0 | 0.00 | 0.00 | 0.00 | 82 | 1011.5 |
| 20260505224045 | 50 | 0 | 0.0 | 2.0 | 0.00 | 0.00 | 0.00 | 82 | 1011.5 |
| 20260505223545 | 50 | 0 | 0.0 | 2.0 | 0.00 | 0.00 | 0.00 | 82 | 1011.5 |
| 20260505223105 | 50 | 0 | 0.0 | 2.0 | 0.00 | 0.00 | 0.00 | 82 | 1011.6 |
| 20260505222548 | 50 | 0 | 0.0 | 2.0 | 0.00 | 0.00 | 0.00 | 82 | 1011.7 |
| 20260505222047 | 50 | 0 | 0.0 | 3.0 | 0.00 | 0.00 | 0.00 | 82 | 1011.7 |
| 20260505221559 | 50 | 0 | 0.0 | 3.0 | 0.00 | 0.00 | 0.00 | 82 | 1011.7 |
| 20260505221044 | 50 | 0 | 0.0 | 3.0 | 0.00 | 0.00 | 0.00 | 82 | 1011.7 |
| 20260505220545 | 50 | 0 | 0.0 | 3.0 | 0.00 | 0.00 | 0.00 | 82 | 1011.7 |
| 20260505220103 | 50 | 0 | 0.0 | 3.0 | 0.00 | 0.00 | 0.00 | 82 | 1011.8 |
| 20260505215548 | 50 | 0 | 0.0 | 2.0 | 0.00 | 0.00 | 0.00 | 82 | 1011.7 |
| 20260505215045 | 50 | 0 | 0.0 | 3.0 | 0.00 | 0.00 | 0.00 | 82 | 1011.7 |
| 20260505214601 | 50 | 0 | 0.0 | 3.0 | 0.00 | 0.00 | 0.00 | 82 | 1011.8 |
| 20260505214048 | 50 | 0 | 0.0 | 1.0 | 0.00 | 0.00 | 0.00 | 81 | 1011.9 |
| 20260505213545 | 50 | 0 | 0.0 | 2.0 | 0.00 | 0.00 | 0.00 | 81 | 1011.9 |
| 20260505213053 | 51 | 0 | 0.0 | 2.0 | 0.00 | 0.00 | 0.00 | 80 | 1011.9 |
| 20260505212548 | 51 | 0 | 0.0 | 3.0 | 0.00 | 0.00 | 0.00 | 80 | 1011.9 |
| 20260505212048 | 51 | 0 | 0.0 | 3.0 | 0.00 | 0.00 | 0.00 | 79 | 1011.8 |
| 20260505211621 | 51 | 0 | 0.0 | 3.0 | 0.00 | 0.00 | 0.00 | 79 | 1011.8 |
| 20260505211047 | 51 | 308 | 0.0 | 3.0 | 0.00 | 0.00 | 0.00 | 78 | 1011.8 |
| 20260505210546 | 51 | 0 | 0.0 | 5.0 | 0.00 | 0.00 | 0.00 | 78 | 1011.9 |
| 20260505210050 | 51 | 0 | 0.0 | 7.0 | 0.00 | 0.00 | 0.00 | 77 | 1012.0 |
| 20260505205548 | 51 | 0 | 0.0 | 7.0 | 0.00 | 0.00 | 0.00 | 77 | 1012.0 |
| 20260505205048 | 51 | 0 | 0.0 | 3.0 | 0.00 | 0.00 | 0.00 | 76 | 1012.0 |
| 20260505204602 | 51 | 0 | 0.0 | 3.0 | 0.00 | 0.00 | 0.00 | 76 | 1012.1 |
| 20260505204047 | 51 | 0 | 0.0 | 3.0 | 0.00 | 0.00 | 0.00 | 75 | 1012.2 |
| 20260505203544 | 51 | 310 | 0.0 | 3.0 | 0.00 | 0.00 | 0.00 | 74 | 1012.1 |
| 20260505203052 | 51 | 0 | 0.0 | 2.0 | 0.00 | 0.00 | 0.00 | 74 | 1012.2 |
| 20260505202544 | 51 | 0 | 0.0 | 2.0 | 0.00 | 0.00 | 0.00 | 74 | 1012.1 |
| 20260505202047 | 51 | 0 | 0.0 | 5.0 | 0.00 | 0.00 | 0.00 | 73 | 1012.2 |
| 20260505201549 | 51 | 0 | 0.0 | 5.0 | 0.00 | 0.00 | 0.00 | 73 | 1012.2 |
| 20260505201049 | 51 | 0 | 0.0 | 5.0 | 0.00 | 0.00 | 0.00 | 73 | 1012.1 |
| 20260505200548 | 52 | 0 | 0.0 | 3.0 | 0.00 | 0.00 | 0.00 | 73 | 1012.2 |
| 20260505200054 | 52 | 0 | 1.0 | 3.0 | 0.00 | 0.00 | 0.00 | 73 | 1012.1 |
| 20260505195548 | 52 | 0 | 0.0 | 3.0 | 0.00 | 0.00 | 0.00 | 73 | 1012.1 |
| 20260505195050 | 52 | 308 | 1.0 | 4.0 | 0.00 | 0.00 | 0.00 | 73 | 1012.0 |
| 20260505194549 | 52 | 0 | 0.0 | 4.0 | 0.00 | 0.00 | 0.00 | 73 | 1012.0 |
| 20260505194048 | 52 | 0 | 0.0 | 3.0 | 0.00 | 0.00 | 0.00 | 73 | 1011.9 |
| 20260505193549 | 52 | 0 | 0.0 | 3.0 | 0.00 | 0.00 | 0.00 | 73 | 1011.9 |
| 20260505193052 | 52 | 316 | 0.0 | 3.0 | 0.00 | 0.00 | 0.00 | 73 | 1011.8 |
| 20260505192547 | 52 | 317 | 0.0 | 3.0 | 0.00 | 0.00 | 0.00 | 73 | 1011.8 |
| 20260505192044 | 52 | 0 | 1.0 | 3.0 | 0.00 | 0.00 | 0.00 | 73 | 1011.8 |
| 20260505191603 | 52 | 306 | 0.0 | 3.0 | 0.00 | 0.00 | 0.00 | 74 | 1011.7 |
| 20260505191044 | 53 | 0 | 0.0 | 3.0 | 0.00 | 0.00 | 0.00 | 74 | 1011.7 |
| 20260505190546 | 53 | 307 | 0.0 | 3.0 | 0.00 | 0.00 | 0.00 | 74 | 1011.7 |
| 20260505190058 | 53 | 294 | 0.0 | 2.0 | 0.00 | 0.00 | 0.00 | 74 | 1011.6 |
| 20260505185548 | 53 | 0 | 0.0 | 4.0 | 0.00 | 0.00 | 0.00 | 74 | 1011.7 |
| 20260505185044 | 53 | 0 | 0.0 | 4.0 | 0.00 | 0.00 | 0.00 | 75 | 1011.6 |
| 20260505184552 | 53 | 303 | 0.0 | 4.0 | 0.00 | 0.00 | 0.00 | 75 | 1011.6 |
| 20260505184046 | 53 | 324 | 0.0 | 4.0 | 0.00 | 0.00 | 0.00 | 75 | 1011.6 |
| 20260505183548 | 53 | 317 | 0.0 | 3.0 | 0.00 | 0.00 | 0.00 | 75 | 1011.6 |
| 20260505183051 | 53 | 0 | 0.0 | 3.0 | 0.00 | 0.00 | 0.00 | 74 | 1011.6 |
| 20260505182548 | 53 | 301 | 1.0 | 3.0 | 0.00 | 0.00 | 0.00 | 74 | 1011.5 |
| 20260505182045 | 54 | 308 | 0.0 | 3.0 | 0.00 | 0.00 | 0.00 | 75 | 1011.5 |
| 20260505181639 | 54 | 155 | 0.0 | 4.0 | 0.00 | 0.00 | 0.00 | 75 | 1011.5 |
| 20260505181051 | 54 | 291 | 1.0 | 4.0 | 0.00 | 0.00 | 0.00 | 74 | 1011.5 |
| 20260505180544 | 54 | 0 | 1.0 | 4.0 | 0.00 | 0.00 | 0.00 | 74 | 1011.5 |
| 20260505175547 | 54 | 306 | 1.0 | 4.0 | 0.00 | 0.00 | 0.00 | 74 | 1011.5 |
| 20260505175048 | 54 | 287 | 1.0 | 4.0 | 0.00 | 0.00 | 0.00 | 74 | 1011.5 |
| 20260505174550 | 54 | 0 | 0.0 | 4.0 | 0.00 | 0.00 | 0.00 | 73 | 1011.5 |
| 20260505174044 | 55 | 0 | 0.0 | 6.0 | 0.00 | 0.00 | 0.00 | 73 | 1011.5 |
| 20260505173548 | 55 | 303 | 1.0 | 6.0 | 0.00 | 0.00 | 0.00 | 73 | 1011.6 |
| 20260505173051 | 55 | 74 | 0.0 | 4.0 | 0.00 | 0.00 | 0.00 | 73 | 1011.6 |
| 20260505172547 | 55 | 0 | 1.0 | 4.0 | 0.00 | 0.00 | 0.00 | 73 | 1011.6 |
| 20260505172048 | 56 | 325 | 1.0 | 7.0 | 0.00 | 0.00 | 0.00 | 72 | 1011.7 |
| 20260505171559 | 56 | 0 | 1.0 | 7.0 | 0.00 | 0.00 | 0.00 | 72 | 1011.7 |
| 20260505171049 | 56 | 0 | 1.0 | 7.0 | 0.00 | 0.00 | 0.00 | 72 | 1011.6 |
| 20260505170545 | 56 | 0 | 0.0 | 4.0 | 0.00 | 0.00 | 0.00 | 72 | 1011.6 |
| 20260505170054 | 56 | 0 | 1.0 | 6.0 | 0.00 | 0.00 | 0.00 | 71 | 1011.5 |
| 20260505165548 | 57 | 0 | 1.0 | 6.0 | 0.00 | 0.00 | 0.00 | 70 | 1011.6 |
| 20260505165048 | 57 | 0 | 1.0 | 6.0 | 0.00 | 0.00 | 0.00 | 71 | 1011.6 |
| 20260505164551 | 57 | 0 | 1.0 | 6.0 | 0.00 | 0.00 | 0.00 | 71 | 1011.6 |
| 20260505164049 | 56 | 290 | 1.0 | 4.0 | 0.00 | 0.00 | 0.00 | 72 | 1011.8 |
| 20260505163546 | 56 | 0 | 1.0 | 6.0 | 0.00 | 0.00 | 0.00 | 72 | 1011.7 |
| 20260505163052 | 56 | 0 | 0.0 | 6.0 | 0.00 | 0.00 | 0.00 | 72 | 1011.8 |
| 20260505162545 | 56 | 293 | 1.0 | 6.0 | 0.00 | 0.00 | 0.00 | 72 | 1011.7 |
| 20260505162047 | 57 | 0 | 1.0 | 6.0 | 0.00 | 0.00 | 0.00 | 71 | 1011.7 |
| 20260505161551 | 57 | 0 | 0.0 | 4.0 | 0.00 | 0.00 | 0.00 | 72 | 1011.7 |
| 20260505161047 | 57 | 0 | 1.0 | 4.0 | 0.00 | 0.00 | 0.00 | 72 | 1011.6 |
| 20260505160549 | 57 | 356 | 1.0 | 4.0 | 0.00 | 0.00 | 0.00 | 71 | 1011.7 |
| 20260505153056 | 58 | 345 | 2.0 | 10.0 | 0.00 | 0.00 | 0.00 | 68 | 1011.8 |
| 20260505152546 | 59 | 0 | 1.0 | 10.0 | 0.00 | 0.00 | 0.00 | 67 | 1011.8 |
| 20260505152047 | 59 | 306 | 0.0 | 10.0 | 0.00 | 0.00 | 0.00 | 66 | 1011.9 |
| 20260505151551 | 59 | 0 | 1.0 | 7.0 | 0.00 | 0.00 | 0.00 | 67 | 1011.9 |
| 20260505151050 | 58 | 258 | 1.0 | 7.0 | 0.00 | 0.00 | 0.00 | 68 | 1011.8 |
| 20260505150548 | 58 | 0 | 1.0 | 7.0 | 0.00 | 0.00 | 0.00 | 68 | 1011.8 |
| 20260505140548 | 58 | 0 | 1.0 | 6.0 | 0.00 | 0.00 | 0.00 | 67 | 1012.1 |
| 20260505124554 | 58 | 270 | 1.0 | 6.0 | 0.00 | 0.00 | 0.00 | 69 | 1012.5 |
| 20260505124047 | 58 | 296 | 0.0 | 6.0 | 0.00 | 0.00 | 0.00 | 69 | 1012.7 |
| 20260505123546 | 58 | 316 | 1.0 | 6.0 | 0.00 | 0.00 | 0.00 | 69 | 1012.5 |
| 20260505123059 | 58 | 0 | 2.0 | 6.0 | 0.00 | 0.00 | 0.00 | 68 | 1012.5 |
| 20260505122547 | 58 | 0 | 0.0 | 6.0 | 0.00 | 0.00 | 0.00 | 70 | 1012.6 |
| 20260505122046 | 58 | 187 | 1.0 | 6.0 | 0.00 | 0.00 | 0.00 | 69 | 1012.7 |
| 20260505121557 | 58 | 0 | 0.0 | 4.0 | 0.00 | 0.00 | 0.00 | 70 | 1012.7 |
| 20260505121046 | 58 | 0 | 0.0 | 7.0 | 0.00 | 0.00 | 0.00 | 70 | 1012.7 |
| 20260505120546 | 58 | 292 | 0.0 | 7.0 | 0.00 | 0.00 | 0.00 | 71 | 1012.7 |
| 20260505120110 | 57 | 299 | 1.0 | 7.0 | 0.00 | 0.00 | 0.00 | 70 | 1012.8 |
| 20260505115546 | 57 | 278 | 1.0 | 7.0 | 0.00 | 0.00 | 0.00 | 70 | 1012.8 |
| 20260505115047 | 57 | 305 | 0.0 | 8.0 | 0.00 | 0.00 | 0.00 | 71 | 1012.8 |
| 20260505114554 | 57 | 283 | 2.0 | 8.0 | 0.00 | 0.00 | 0.00 | 70 | 1012.7 |
| 20260505114049 | 57 | 310 | 1.0 | 6.0 | 0.00 | 0.00 | 0.00 | 70 | 1012.7 |
| 20260505113551 | 57 | 317 | 1.0 | 4.0 | 0.00 | 0.00 | 0.00 | 71 | 1012.7 |
| 20260505113052 | 57 | 0 | 0.0 | 4.0 | 0.00 | 0.00 | 0.00 | 70 | 1012.8 |
| 20260505112548 | 56 | 301 | 0.0 | 6.0 | 0.00 | 0.00 | 0.00 | 71 | 1012.8 |
| 20260505112047 | 56 | 0 | 0.0 | 6.0 | 0.00 | 0.00 | 0.00 | 71 | 1012.8 |
| 20260505111552 | 56 | 296 | 0.0 | 1.0 | 0.00 | 0.00 | 0.00 | 72 | 1012.7 |
| 20260505111047 | 56 | 0 | 0.0 | 0.0 | 0.00 | 0.00 | 0.00 | 74 | 1012.7 |
| 20260505110548 | 55 | 0 | 0.0 | 2.0 | 0.00 | 0.00 | 0.00 | 74 | 1012.7 |
| 20260505110108 | 55 | 0 | 0.0 | 8.0 | 0.00 | 0.00 | 0.00 | 75 | 1012.7 |
| 20260505102044 | 53 | 0 | 0.0 | 3.0 | 0.00 | 0.00 | 0.00 | 78 | 1013.3 |
| 20260505101602 | 53 | 0 | 0.0 | 2.0 | 0.00 | 0.00 | 0.00 | 79 | 1013.3 |
| 20260505101045 | 53 | 0 | 0.0 | 2.0 | 0.00 | 0.00 | 0.00 | 79 | 1013.3 |
| 20260505100547 | 53 | 0 | 0.0 | 3.0 | 0.00 | 0.00 | 0.00 | 80 | 1013.2 |
| 20260505100057 | 53 | 0 | 0.0 | 3.0 | 0.00 | 0.00 | 0.00 | 80 | 1013.2 |
| 20260505095546 | 52 | 0 | 0.0 | 3.0 | 0.00 | 0.00 | 0.00 | 80 | 1013.2 |
| 20260505095045 | 52 | 0 | 0.0 | 3.0 | 0.00 | 0.00 | 0.00 | 80 | 1013.4 |
| 20260505094550 | 52 | 0 | 0.0 | 4.0 | 0.00 | 0.00 | 0.00 | 80 | 1013.3 |
| 20260505094048 | 52 | 0 | 0.0 | 4.0 | 0.00 | 0.00 | 0.00 | 81 | 1013.3 |
| 20260505093544 | 52 | 0 | 0.0 | 2.0 | 0.00 | 0.00 | 0.00 | 82 | 1013.4 |
| 20260505093053 | 52 | 0 | 0.0 | 4.0 | 0.00 | 0.00 | 0.00 | 82 | 1013.4 |
| 20260505092544 | 52 | 0 | 0.0 | 4.0 | 0.00 | 0.00 | 0.00 | 82 | 1013.4 |
| 20260505092046 | 52 | 294 | 0.0 | 4.0 | 0.00 | 0.00 | 0.00 | 82 | 1013.4 |
| 20260505091557 | 52 | 0 | 0.0 | 4.0 | 0.00 | 0.00 | 0.00 | 82 | 1013.3 |
| 20260505091046 | 51 | 0 | 0.0 | 2.0 | 0.00 | 0.00 | 0.00 | 83 | 1013.4 |
| 20260505090547 | 51 | 0 | 0.0 | 2.0 | 0.00 | 0.00 | 0.00 | 85 | 1013.4 |
| 20260505090051 | 51 | 0 | 0.0 | 3.0 | 0.00 | 0.00 | 0.00 | 86 | 1013.3 |
| 20260505085546 | 51 | 0 | 0.0 | 4.0 | 0.00 | 0.00 | 0.00 | 86 | 1013.3 |
| 20260505085045 | 51 | 0 | 0.0 | 5.0 | 0.00 | 0.00 | 0.00 | 86 | 1013.2 |
| 20260505084602 | 51 | 0 | 0.0 | 5.0 | 0.00 | 0.00 | 0.00 | 87 | 1013.2 |
| 20260505084044 | 50 | 0 | 0.0 | 3.0 | 0.00 | 0.00 | 0.00 | 87 | 1013.3 |
| 20260505083544 | 50 | 0 | 0.0 | 3.0 | 0.00 | 0.00 | 0.00 | 87 | 1013.2 |
| 20260505083110 | 50 | 0 | 0.0 | 3.0 | 0.00 | 0.00 | 0.00 | 88 | 1013.3 |
| 20260505082547 | 50 | 0 | 0.0 | 2.0 | 0.00 | 0.00 | 0.00 | 88 | 1013.5 |
| 20260505082047 | 50 | 0 | 0.0 | 2.0 | 0.00 | 0.00 | 0.00 | 89 | 1013.5 |
| 20260505081554 | 50 | 0 | 0.0 | 4.0 | 0.00 | 0.00 | 0.00 | 89 | 1013.5 |
| 20260505081048 | 50 | 0 | 0.0 | 4.0 | 0.00 | 0.00 | 0.00 | 89 | 1013.6 |
| 20260505080547 | 50 | 0 | 0.0 | 2.0 | 0.00 | 0.00 | 0.00 | 90 | 1013.5 |
| 20260505080054 | 49 | 0 | 0.0 | 2.0 | 0.00 | 0.00 | 0.00 | 90 | 1013.6 |
| 20260505075551 | 49 | 0 | 0.0 | 2.0 | 0.00 | 0.00 | 0.00 | 90 | 1013.6 |
| 20260505075045 | 49 | 0 | 0.0 | 2.0 | 0.00 | 0.00 | 0.00 | 91 | 1013.6 |
| 20260505074554 | 49 | 0 | 0.0 | 2.0 | 0.00 | 0.00 | 0.00 | 91 | 1013.7 |
| 20260505074045 | 49 | 0 | 0.0 | 2.0 | 0.00 | 0.00 | 0.00 | 91 | 1013.8 |
| 20260505073545 | 49 | 0 | 0.0 | 2.0 | 0.00 | 0.00 | 0.00 | 92 | 1013.7 |
| 20260505073059 | 49 | 0 | 0.0 | 3.0 | 0.00 | 0.00 | 0.00 | 92 | 1013.9 |
| 20260505072544 | 49 | 0 | 0.0 | 3.0 | 0.00 | 0.00 | 0.00 | 92 | 1013.8 |
| 20260505072045 | 49 | 0 | 0.0 | 3.0 | 0.00 | 0.00 | 0.00 | 92 | 1013.9 |
| 20260505071555 | 49 | 0 | 0.0 | 3.0 | 0.00 | 0.00 | 0.00 | 92 | 1013.9 |
| 20260505071045 | 49 | 0 | 0.0 | 3.0 | 0.00 | 0.00 | 0.00 | 92 | 1013.8 |
| 20260505070544 | 48 | 0 | 0.0 | 3.0 | 0.00 | 0.00 | 0.00 | 92 | 1013.8 |
| 20260505070053 | 48 | 0 | 0.0 | 2.0 | 0.00 | 0.00 | 0.00 | 92 | 1014.0 |
| 20260505065547 | 48 | 0 | 0.0 | 2.0 | 0.00 | 0.00 | 0.00 | 92 | 1014.2 |
| 20260505065048 | 48 | 0 | 0.0 | 3.0 | 0.00 | 0.00 | 0.00 | 92 | 1014.2 |
| 20260505064624 | 48 | 0 | 0.0 | 3.0 | 0.00 | 0.00 | 0.00 | 92 | 1014.3 |
| 20260505064048 | 48 | 0 | 0.0 | 1.0 | 0.00 | 0.00 | 0.00 | 92 | 1014.2 |
| 20260505063548 | 48 | 0 | 0.0 | 5.0 | 0.00 | 0.00 | 0.00 | 92 | 1014.1 |
| 20260505063053 | 48 | 0 | 0.0 | 5.0 | 0.00 | 0.00 | 0.00 | 91 | 1014.2 |
| 20260505062549 | 49 | 82 | 0.0 | 3.0 | 0.00 | 0.00 | 0.00 | 92 | 1014.1 |
| 20260505062044 | 49 | 0 | 0.0 | 3.0 | 0.00 | 0.00 | 0.00 | 91 | 1014.2 |
| 20260505061552 | 49 | 0 | 0.0 | 3.0 | 0.00 | 0.00 | 0.00 | 91 | 1014.1 |
| 20260505061044 | 49 | 0 | 0.0 | 2.0 | 0.00 | 0.00 | 0.00 | 91 | 1014.0 |
| 20260505060544 | 49 | 0 | 0.0 | 3.0 | 0.00 | 0.00 | 0.00 | 91 | 1014.0 |
| 20260505060050 | 49 | 0 | 0.0 | 3.0 | 0.00 | 0.00 | 0.00 | 90 | 1014.0 |
| 20260505055546 | 49 | 0 | 0.0 | 2.0 | 0.00 | 0.00 | 0.00 | 90 | 1014.0 |
| 20260505055045 | 49 | 0 | 0.0 | 4.0 | 0.00 | 0.00 | 0.00 | 90 | 1013.8 |
| 20260505054558 | 49 | 0 | 0.0 | 4.0 | 0.00 | 0.00 | 0.00 | 90 | 1013.8 |
| 20260505054044 | 49 | 0 | 0.0 | 2.0 | 0.00 | 0.00 | 0.00 | 90 | 1013.8 |
| 20260505053544 | 49 | 0 | 0.0 | 2.0 | 0.00 | 0.00 | 0.00 | 90 | 1013.8 |
| 20260505053048 | 49 | 0 | 0.0 | 2.0 | 0.00 | 0.00 | 0.00 | 89 | 1013.7 |
| 20260505052545 | 49 | 0 | 0.0 | 2.0 | 0.00 | 0.00 | 0.00 | 89 | 1013.7 |
| 20260505052048 | 49 | 0 | 0.0 | 2.0 | 0.00 | 0.00 | 0.00 | 89 | 1013.6 |
| 20260505051552 | 49 | 0 | 0.0 | 2.0 | 0.00 | 0.00 | 0.00 | 89 | 1013.5 |
| 20260505051044 | 49 | 0 | 0.0 | 2.0 | 0.00 | 0.00 | 0.00 | 89 | 1013.5 |
| 20260505050544 | 49 | 0 | 0.0 | 2.0 | 0.00 | 0.00 | 0.00 | 89 | 1013.6 |
| 20260505041556 | 49 | 0 | 0.0 | 2.0 | 0.00 | 0.00 | 0.00 | 89 | 1013.6 |
| 20260505041047 | 49 | 0 | 0.0 | 1.0 | 0.00 | 0.00 | 0.00 | 89 | 1013.6 |
| 20260505040547 | 49 | 0 | 0.0 | 1.0 | 0.00 | 0.00 | 0.00 | 89 | 1013.7 |
| 20260505035619 | 50 | 0 | 0.0 | 1.0 | 0.00 | 0.00 | 0.00 | 89 | 1013.8 |
| 20260505035047 | 50 | 0 | 0.0 | 1.0 | 0.00 | 0.00 | 0.00 | 89 | 1013.7 |
| 20260505034611 | 50 | 0 | 0.0 | 2.0 | 0.00 | 0.00 | 0.00 | 89 | 1013.8 |
| 20260505034045 | 50 | 0 | 0.0 | 2.0 | 0.00 | 0.00 | 0.00 | 89 | 1013.6 |
| 20260505033545 | 50 | 0 | 0.0 | 2.0 | 0.00 | 0.00 | 0.00 | 89 | 1013.7 |